TDRS 6

Last updated on Thu Nov 21 2024 00:02:35 GMT+0000 (Coordinated Universal Time)

1 22314U 93003B 24325.53180737 -.00000298 00000+0 00000+0 0 9995 2 22314 14.1683 1.2683 0009838 190.6273 13.6709 1.00267699116658
UTC large
Height (km)
Speed (km/s)
/
Latitude / Longitude
Inclination (degrees)
Orbital Period (minutes)
Azimuth
Elevation
Range (km)
Doppler Factor

Next 0 passes for location: London (51.5072 / 0.1276)

Sorry there are no passes over London.